[[{"header":{"parameterUnit":"m.s-1","parameterCategory":1,"la1":30.2991,"la2":30.254,"lo1":-89.0895,"lo2":-89.0444,"dy":0.0017,"dx":0.0017,"nx":28,"ny":28,"refTime":"2023-09-29T03:00:00:Z","depth":0,"parameterNumber":2,"parameterNumberName":"U-component_of_WINDS"},"data":[0,0,0,0,0,0,0,0,0,0,0,0,0,0,0,0,0,0,0,0,0,0,0,0,0,0,0,0,0,0,0,0,0,0,0,0,0,0,0,0,0,0,0,0,0,0,0,0,0,0,0,0,0,0,0,0,0,0,-4.5572,-4.5572,0,-4.5559,-4.5559,-4.5558,-4.5409,-4.5406,-4.5402,-4.5398,-4.5386,-4.5389,-4.5392,0,0,0,0,0,0,0,0,0,0,0,0,0,-4.5468,-4.5471,-4.5572,-4.5572,-4.5572,-4.5559,-4.5559,-4.5558,-4.541,-4.5406,-4.5401,-4.5397,-4.5385,-4.5389,-4.5392,0,0,0,0,0,0,0,0,0,0,0,0,0,-4.549,-4.5472,-4.5572,-4.5496,-4.5489,-4.5559,-4.5559,-4.5558,-4.5411,-4.5405,-4.54,-4.5395,-4.5384,-4.5388,-4.5393,-4.5535,0,0,-4.5407,-4.5409,0,0,0,0,0,0,0,0,-4.5489,-4.5494,-4.5507,-4.5501,-4.5494,-4.548,-4.5517,-4.555,-4.5412,-4.5441,-4.5398,-4.5392,-4.5422,-4.5423,-4.5433,-4.5534,-4.5533,-4.5408,-4.5411,-4.5413,-4.5414,0,0,0,0,0,0,0,-4.5488,-4.5494,-4.5567,-4.5508,-4.5499,-4.5462,-4.5459,-4.5523,-4.5463,-4.5438,-4.5427,-4.5427,-4.5417,-4.5429,-4.5431,-4.5533,-4.5408,-4.5412,-4.5415,-4.5417,-4.575,-4.5755,0,0,0,0,0,0,-4.5497,-4.5494,-4.5567,-4.5566,-4.5477,-4.5469,-4.5465,-4.549,-4.5462,-4.5452,-4.5432,-4.5421,-4.5423,-4.5426,-4.5431,-4.5594,-4.5413,-4.5417,-4.542,-4.5744,-4.5751,-4.5757,0,0,0,0,0,0,-4.5495,-4.5505,-4.5567,-4.5527,-4.5532,-4.5477,-4.5506,-4.5493,-4.5504,-4.5458,-4.5446,-4.5455,-4.5419,-4.5424,-4.551,-4.5592,-4.5419,-4.5423,-4.5736,-4.5746,-4.5754,-4.5923,0,0,0,0,0,0,-4.5493,-4.5505,-4.5558,-4.5529,-4.5535,-4.5648,-4.5511,-4.5497,-4.5513,-4.5497,-4.5476,-4.5467,-4.5415,-4.5503,-4.5514,-4.5595,-4.5427,-4.5729,-4.5741,-4.5751,-4.591,-4.5937,-4.596,0,0,0,0,0,-4.549,-4.5607,-4.5562,-4.5572,-4.56,-4.5652,-4.5656,-4.5593,-4.552,-4.5573,-4.5543,-4.5468,-4.5581,-4.5513,-4.5525,-4.5608,-4.5723,-4.5737,-4.575,-4.5899,-4.5932,-4.5959,0,0,0,0,0,0,-4.5647,-4.5602,-4.5551,-4.5663,-4.5663,-4.5627,-4.5692,-4.563,-4.565,-4.5635,-4.5556,-4.5553,-4.5651,-4.5638,-4.5563,-4.5743,-4.5639,-4.5656,-4.5748,-4.5779,-4.5804,-4.5805,-4.5431,0,0,0,0,0,-4.5695,-4.5741,-4.5699,-4.5801,-4.5803,-4.5749,-4.5769,-4.572,-4.5717,-4.5716,-4.5692,-4.5693,-4.5727,-4.5753,-4.5782,-4.5908,-4.5901,-4.597,-4.5995,-4.6016,-4.6031,-4.6096,-4.6126,-4.5802,-4.5802,-4.5801,0,0,-4.5794,-4.5775,-4.5809,-4.5832,-4.5826,-4.5876,-4.5749,-4.5807,-4.5843,-4.5725,-4.5804,-4.5787,-4.5782,-4.5888,-4.5934,-4.588,-4.6119,-4.6033,-4.605,-4.6054,-4.6113,-4.6144,-4.6171,-4.5811,-4.5809,-4.5808,0,0,-4.6,-4.599,-4.6074,-4.6071,-4.6063,-4.6026,-4.6047,-4.6021,-4.6005,-4.6083,-4.5996,-4.6037,-4.61,-4.6099,-4.6108,-4.6313,-4.6245,-4.6325,-4.6455,-4.652,-4.6545,-4.6568,-4.6641,-4.6668,-4.634,-4.6341,-4.6341,0,-4.6124,-4.6195,-4.6125,-4.6189,-4.6201,-4.6097,-4.6181,-4.6181,-4.6185,-4.6196,-4.6136,-4.6212,-4.6201,-4.6306,-4.6356,-4.6366,-4.6387,-4.6327,-4.6547,-4.6569,-4.6589,-4.6657,-4.6685,-4.6351,-4.635,-4.6349,-4.6348,0,-4.6348,-4.6398,-4.6467,-4.6472,-4.6493,-4.6566,-4.6508,-4.6537,-4.6487,-4.6456,-4.6537,-4.6521,-4.6545,-4.6566,-4.6518,-4.6664,-4.6631,-4.6561,-4.6454,-4.6631,-4.6694,-4.672,-4.6365,-4.6361,-4.6358,-4.6356,0,0,-4.6653,-4.6618,-4.6645,-4.6645,-4.663,-4.6667,-4.6736,-4.676,-4.6786,-4.6792,-4.6848,-4.6904,-4.6838,-4.6847,-4.6798,-4.6855,-4.7019,-4.6777,-4.6775,-4.6822,-4.7178,-4.7232,-4.7263,-4.6973,-4.6978,-4.6982,-4.7179,0,-4.685,-4.6966,-4.6905,-4.7029,-4.7074,-4.6975,-4.7035,-4.7032,-4.7005,-4.704,-4.701,-4.705,-4.6961,-4.6966,-4.7017,-4.6988,-4.7089,-4.6973,-4.7025,-4.7027,-4.7029,-4.7296,-4.7353,-4.7539,-4.7203,-4.7207,-4.721,0,-4.7097,-4.7113,-4.7241,-4.7216,-4.7233,-4.7288,-4.7304,-4.7339,-4.7334,-4.731,-4.7321,-4.7258,-4.7324,-4.7219,-4.7309,-4.7231,-4.7249,-4.7238,-4.7243,-4.7245,-4.7129,-4.7306,-4.7597,-4.7625,-4.7249,-4.7246,-4.7243,0,-4.7306,-4.7359,-4.7443,-4.7447,-4.742,-4.7461,-4.7452,-4.7441,-4.7459,-4.7474,-4.7484,-4.7507,-4.752,-4.7539,-4.7484,-4.7413,-4.7582,-4.7472,-4.7564,-4.7565,-4.7603,-4.7602,-4.7902,-4.7616,-4.7615,-4.7615,-4.7614,0,-4.7533,-4.7615,-4.7536,-4.7588,-4.7677,-4.7606,-4.7696,-4.7676,-4.7668,-4.7713,-4.763,-4.7675,-4.7599,-4.7637,-4.7595,-4.7676,-4.7682,-4.7665,-4.7652,-4.7672,-4.7674,-4.7682,-4.7668,-4.7622,-4.7621,-4.7619,-4.7618,0,-4.7782,-4.7732,-4.7816,-4.7784,-4.7778,-4.7845,-4.7817,-4.7864,-4.7831,-4.789,-4.79,-4.7848,-4.7888,-4.7835,-4.787,-4.7842,-4.7952,-4.792,-4.7954,-4.7945,-4.8039,-4.8031,-4.8355,-4.8394,-4.8084,-4.8087,-4.8089,0,-4.793,-4.7991,-4.7965,-4.7989,-4.7985,-4.8026,-4.8043,-4.7976,-4.7999,-4.7997,-4.8044,-4.8076,-4.8099,-4.8167,-4.8133,-4.8159,-4.8127,-4.8239,-4.8131,-4.8149,-4.8129,-4.8126,-4.8131,-4.8261,-4.8265,-4.8268,-4.827,0,-4.8198,-4.817,-4.8199,-4.822,-4.8243,-4.8256,-4.8263,-4.8288,-4.8218,-4.8247,-4.8286,-4.8304,-4.8339,-4.8373,-4.839,-4.838,-4.8315,-4.8305,-4.8327,-4.8348,-4.8365,-4.8357,-4.8014,-4.8298,-4.8295,-4.8293,-4.8291,-4.829,-4.84,-4.845,-4.8439,-4.8474,-4.8472,-4.848,-4.8522,-4.8494,-4.8526,-4.8549,-4.8507,-4.8558,-4.855,-4.8566,-4.8565,-4.8603,-4.8554,-4.8587,-4.8596,-4.8605,-4.8619,-4.8359,-4.8606,-4.8605,-4.8604,-4.8603,-4.8603,0,-4.8664,-4.8652,-4.8685,-4.8697,-4.8724,-4.8659,-4.8663,-4.8691,-4.8736,-4.8734,-4.8758,-4.8804,-4.8836,-4.8805,-4.8831,-4.8867,-4.8838,-4.8876,-4.8873,-4.8872,-4.8661,-4.8639,-4.89,-4.89,-4.89,-4.89,-4.89,-4.89,-4.8804,-4.8884,-4.8855,-4.8933,-4.892,-4.8968,-4.8976,-4.8984,-4.8982,-4.9036,-4.9063,-4.9042,-4.9028,-4.9053,-4.908,-4.9069,-4.9083,-4.9133,-4.9112,-4.8916,-4.8887,-4.8859,-4.8837,-4.9136,-4.9137,-4.9319,-4.9321,-4.9323]},{"header":{"parameterUnit":"m.s-1","parameterCategory":1,"la1":30.2991,"la2":30.254,"lo1":-89.0895,"lo2":-89.0444,"dy":0.0017,"dx":0.0017,"nx":28,"ny":28,"refTime":"2023-09-29T03:00:00:Z","depth":0,"parameterNumber":3,"parameterNumberName":"V-component_of_WINDS"},"data":[0,0,0,0,0,0,0,0,0,0,0,0,0,0,0,0,0,0,0,0,0,0,0,0,0,0,0,0,0,0,0,0,0,0,0,0,0,0,0,0,0,0,0,0,0,0,0,0,0,0,0,0,0,0,0,0,0,0,-2.6711,-2.6711,0,-2.6727,-2.6727,-2.6728,-2.6683,-2.6682,-2.668,-2.6679,-2.6695,-2.6696,-2.6698,0,0,0,0,0,0,0,0,0,0,0,0,0,-2.6638,-2.664,-2.6711,-2.6711,-2.6711,-2.6727,-2.6727,-2.6728,-2.6683,-2.6682,-2.668,-2.6678,-2.6694,-2.6696,-2.6698,0,0,0,0,0,0,0,0,0,0,0,0,0,-2.6664,-2.664,-2.6711,-2.6691,-2.6689,-2.6727,-2.6727,-2.6728,-2.6684,-2.6682,-2.668,-2.6678,-2.6694,-2.6696,-2.6699,-2.6756,0,0,-2.6706,-2.6708,0,0,0,0,0,0,0,0,-2.6662,-2.6666,-2.6694,-2.6692,-2.6691,-2.6701,-2.6708,-2.6737,-2.6684,-2.6686,-2.6679,-2.6677,-2.6698,-2.67,-2.6708,-2.6756,-2.6757,-2.6707,-2.6708,-2.6709,-2.671,0,0,0,0,0,0,0,-2.6661,-2.6665,-2.6717,-2.6694,-2.6692,-2.668,-2.6682,-2.6713,-2.6704,-2.6686,-2.6682,-2.6685,-2.6697,-2.6706,-2.6708,-2.6757,-2.6707,-2.6709,-2.671,-2.6711,-2.6852,-2.6854,0,0,0,0,0,0,-2.6662,-2.6664,-2.6717,-2.6718,-2.6671,-2.6684,-2.6685,-2.67,-2.6703,-2.6702,-2.6687,-2.6683,-2.6702,-2.6705,-2.6709,-2.6775,-2.6709,-2.6712,-2.6713,-2.685,-2.6852,-2.6855,0,0,0,0,0,0,-2.666,-2.6667,-2.6716,-2.669,-2.6695,-2.6687,-2.6704,-2.6701,-2.671,-2.6704,-2.6702,-2.6697,-2.6701,-2.6705,-2.6744,-2.6775,-2.6713,-2.6715,-2.6847,-2.6851,-2.6854,-2.6908,0,0,0,0,0,0,-2.6658,-2.6667,-2.6689,-2.6691,-2.6697,-2.6752,-2.6706,-2.6703,-2.6714,-2.6709,-2.6713,-2.6712,-2.67,-2.6741,-2.6747,-2.6777,-2.6717,-2.6844,-2.6849,-2.6853,-2.6904,-2.6913,-2.6921,0,0,0,0,0,-2.6656,-2.6704,-2.669,-2.6697,-2.6725,-2.6754,-2.6757,-2.6742,-2.6717,-2.6739,-2.6735,-2.6712,-2.677,-2.6745,-2.6751,-2.6783,-2.6842,-2.6847,-2.6852,-2.69,-2.6911,-2.6921,0,0,0,0,0,0,-2.6705,-2.6704,-2.6689,-2.6739,-2.6747,-2.6746,-2.6774,-2.6755,-2.677,-2.6765,-2.6745,-2.6747,-2.6789,-2.679,-2.6762,-2.6838,-2.6802,-2.6808,-2.6836,-2.6847,-2.6855,-2.6854,-2.6719,0,0,0,0,0,-2.6722,-2.6746,-2.6743,-2.6788,-2.6792,-2.6782,-2.6795,-2.6782,-2.679,-2.6793,-2.6792,-2.68,-2.6819,-2.6833,-2.6851,-2.6903,-2.6903,-2.6928,-2.6937,-2.6944,-2.695,-2.6976,-2.6987,-2.6871,-2.6871,-2.6871,0,0,-2.6757,-2.6759,-2.6775,-2.6797,-2.6802,-2.6827,-2.6786,-2.6814,-2.6832,-2.6797,-2.6834,-2.6833,-2.684,-2.6886,-2.6906,-2.6888,-2.6982,-2.695,-2.6956,-2.6958,-2.6983,-2.6994,-2.7003,-2.6874,-2.6874,-2.6873,0,0,-2.6832,-2.6837,-2.6874,-2.6879,-2.6887,-2.688,-2.6889,-2.6891,-2.6889,-2.6926,-2.69,-2.6921,-2.6956,-2.6962,-2.6969,-2.7046,-2.7025,-2.7052,-2.7098,-2.7124,-2.7133,-2.7141,-2.7167,-2.7177,-2.7058,-2.7058,-2.7058,0,-2.6875,-2.6912,-2.6895,-2.6925,-2.6935,-2.6904,-2.6941,-2.6947,-2.696,-2.6967,-2.6947,-2.6989,-2.6992,-2.7038,-2.7057,-2.7064,-2.7073,-2.7052,-2.7133,-2.7141,-2.7148,-2.7173,-2.7183,-2.7062,-2.7061,-2.7061,-2.7061,0,-2.6962,-2.6988,-2.7017,-2.703,-2.7043,-2.7077,-2.7064,-2.7079,-2.7065,-2.706,-2.7097,-2.7099,-2.7117,-2.7127,-2.7114,-2.7171,-2.7159,-2.7136,-2.71,-2.7163,-2.7186,-2.7195,-2.7066,-2.7065,-2.7064,-2.7063,0,0,-2.707,-2.7073,-2.7084,-2.7089,-2.7095,-2.7114,-2.7146,-2.7163,-2.7176,-2.7186,-2.7211,-2.724,-2.7219,-2.7228,-2.7215,-2.7238,-2.7297,-2.7212,-2.7211,-2.7227,-2.7359,-2.7376,-2.7387,-2.7283,-2.7285,-2.7287,-2.7358,0,-2.7144,-2.7198,-2.7183,-2.7237,-2.726,-2.723,-2.7257,-2.7263,-2.7259,-2.7277,-2.7272,-2.7293,-2.7264,-2.7269,-2.729,-2.7286,-2.7323,-2.728,-2.7306,-2.7307,-2.7304,-2.74,-2.7418,-2.7485,-2.7367,-2.7369,-2.737,0,-2.7238,-2.7252,-2.7307,-2.7308,-2.7317,-2.7342,-2.7356,-2.7374,-2.738,-2.7375,-2.7384,-2.7366,-2.7396,-2.7359,-2.7399,-2.737,-2.7379,-2.7379,-2.7381,-2.7382,-2.7342,-2.7403,-2.7507,-2.7517,-2.7384,-2.7383,-2.7382,0,-2.731,-2.7342,-2.7379,-2.7385,-2.7387,-2.7405,-2.7406,-2.741,-2.7421,-2.7433,-2.7439,-2.7455,-2.7463,-2.7475,-2.7462,-2.7436,-2.7503,-2.7466,-2.7499,-2.75,-2.7515,-2.7514,-2.7621,-2.7522,-2.7522,-2.7521,-2.7521,0,-2.7394,-2.7429,-2.7411,-2.7434,-2.7472,-2.7454,-2.7492,-2.749,-2.7494,-2.7515,-2.7491,-2.7511,-2.7492,-2.7511,-2.75,-2.7534,-2.7539,-2.7535,-2.7532,-2.7537,-2.7537,-2.7542,-2.7537,-2.7524,-2.7523,-2.7523,-2.7522,0,-2.7481,-2.7471,-2.7509,-2.7508,-2.7508,-2.7536,-2.7535,-2.7555,-2.7549,-2.7576,-2.7581,-2.7571,-2.7591,-2.7579,-2.76,-2.7593,-2.7637,-2.7628,-2.7635,-2.7632,-2.7666,-2.7663,-2.778,-2.7794,-2.7687,-2.7688,-2.7689,0,-2.7536,-2.7562,-2.7563,-2.7575,-2.7579,-2.7599,-2.761,-2.7593,-2.7605,-2.7613,-2.7633,-2.7651,-2.7665,-2.7698,-2.7692,-2.7708,-2.7698,-2.7738,-2.77,-2.7705,-2.7698,-2.7696,-2.7699,-2.7746,-2.7747,-2.7748,-2.7749,0,-2.7632,-2.7626,-2.7642,-2.7657,-2.7671,-2.7681,-2.769,-2.7702,-2.7685,-2.7699,-2.772,-2.773,-2.7751,-2.7769,-2.7782,-2.7783,-2.7763,-2.7761,-2.7769,-2.7775,-2.7778,-2.7776,-2.7655,-2.7758,-2.7757,-2.7756,-2.7756,-2.7756,-2.7704,-2.7725,-2.7729,-2.7748,-2.7753,-2.7761,-2.778,-2.7776,-2.7793,-2.7809,-2.7797,-2.7822,-2.7825,-2.7841,-2.7844,-2.7862,-2.7846,-2.7858,-2.7861,-2.7865,-2.7869,-2.7775,-2.7864,-2.7864,-2.7864,-2.7864,-2.7863,0,-2.7799,-2.78,-2.7817,-2.783,-2.7845,-2.7825,-2.7833,-2.7846,-2.7868,-2.7873,-2.7887,-2.791,-2.7927,-2.7923,-2.7938,-2.7953,-2.7944,-2.7958,-2.7956,-2.7956,-2.7883,-2.7874,-2.7965,-2.7965,-2.7965,-2.7964,-2.7964,-2.7964,-2.785,-2.7885,-2.7878,-2.7915,-2.7915,-2.7938,-2.7945,-2.7952,-2.7956,-2.7983,-2.7997,-2.7994,-2.7995,-2.801,-2.8024,-2.8022,-2.8029,-2.8046,-2.804,-2.7972,-2.7962,-2.7952,-2.7943,-2.8047,-2.8048,-2.8112,-2.8113,-2.8113]}]]